Weather observations for the past three days for
Muscle Shoals, North West Alabama Regional Airport
Imperial (Metric)
Date Time (cdt) Wind (mph) Vis. (mi.) Weather Sky Cond. Temperature (ºF) Relative Humidity Wind Chill (°F) Heat Index (°F) Pressure Precipitation (in)
Air Dwpt 6 hour altimeter (in) sea level (mb) 1 hr 3 hr 6 hr
Max. Min.
14 02:53 Calm 10.00 Fair CLR 72 66.9 84% 29.98 1014.3
14 01:53 Calm 10.00 Fair CLR 71.1 66 84% 29.97 1014.1
14 00:53 Calm 10.00 Fair CLR 73 66.9 89.1 71.1 81% 29.97 1014.1
13 23:53 Calm 10.00 Fair CLR 73 66.9 81% 29.95 1013.5
13 22:53 Calm 10.00 Fair CLR 75 68 79% 76 29.96 1013.6
13 21:53 Calm 10.00 Fair CLR 75.9 68 77% 77 29.94 1013.2
13 20:53 Calm 10.00 Fair CLR 77 66.9 71% 79 29.93 1012.7
13 19:53 Calm 10.00 Fair CLR 82.9 66 57% 85 29.93 1012.8
13 18:53 NW 5 10.00 Fair CLR 89.1 63 93 89.1 42% 90 29.94 1013.1
13 17:53 W 6 10.00 Fair CLR 91 61 37% 91 29.94 1013.0
13 16:53 Calm 10.00 Fair CLR 91 61 37% 91 29.94 1013.2
13 15:53 N 7 10.00 Overcast OVC060 93 61 34% 93 29.95 1013.5
13 14:53 Vrbl 6 10.00 Fair CLR 91 64 41% 93 29.96 1013.8
13 13:53 Vrbl 6 10.00 A Few Clouds FEW060 91 64.9 42% 93 29.97 1014.3
13 12:53 SE 7 10.00 Fair CLR 90 63 90 68 41% 91 29.98 1014.5
13 11:53 Vrbl 6 10.00 Fair CLR 87.1 62.1 43% 88 29.98 1014.6
13 10:53 Vrbl 3 10.00 Fair CLR 86 64 48% 87 29.99 1014.8
13 09:53 E 3 10.00 Fair CLR 82 64.9 56% 84 29.99 1015.0
13 08:53 Calm 10.00 Fair CLR 78.1 64 62% 80 30 1015.3
13 07:53 Calm 10.00 Fair CLR 73.9 64 71% 29.99 1015.0
13 06:53 Calm 10.00 Fair CLR 68 63 68 63 84% 29.98 1014.4
13 05:53 Calm 10.00 Fair CLR 64 60.1 87% 29.97 1014.1
13 04:53 Calm 9.00 Fair CLR 63 60.1 90% 29.95 1013.7
13 03:53 Calm 10.00 Fair CLR 64.9 61 87% 29.94 1013.4
13 02:53 Calm 10.00 Fair CLR 66 62.1 87% 29.95 1013.4
13 01:53 Calm 10.00 Fair CLR 66.9 62.1 84% 29.95 1013.7
13 00:53 Calm 10.00 Fair CLR 66.9 63 84 66.9 87% 29.96 1013.8
12 23:53 Calm 10.00 Fair CLR 69.1 63 81% 29.97 1014.2
12 22:53 Calm 10.00 Fair CLR 70 62.1 76% 29.97 1014.2
12 21:53 Calm 10.00 Fair CLR 73 63 71% 29.97 1014.3
12 20:53 N 5 10.00 Fair CLR 75.9 62.1 62% 78 29.96 1014.0
12 19:53 N 3 10.00 Fair CLR 80.1 60.1 51% 81 29.96 1013.9
12 18:53 NE 5 10.00 Fair CLR 84 60.1 86 82 44% 84 29.96 1013.9
12 17:53 Calm 10.00 Fair CLR 84 55.9 38% 83 29.95 1013.7
12 16:53 E 6 10.00 Fair CLR 86 57.9 39% 85 29.96 1013.8
12 15:53 Vrbl 3 10.00 Fair CLR 84 57.9 41% 83 29.96 1014.1
12 14:53 N 5 10.00 Fair CLR 84.9 57.9 40% 84 29.97 1014.4
12 13:53 NE 9 10.00 Fair CLR 84 57.9 41% 83 29.99 1014.9
12 12:53 N 6 10.00 Fair CLR 84 57.9 84.9 64 41% 83 30 1015.4
12 11:53 NW 7 10.00 Fair CLR 82.9 61 48% 83 30.02 1015.8
12 10:53 Vrbl 3 10.00 Fair CLR 80.1 59 49% 81 30.02 1016.0
12 09:53 NE 5 10.00 Fair CLR 77 57.9 52% 79 30.02 1016.0
12 08:53 Calm 10.00 Fair CLR 73 57 57% 30.02 1016.1
12 06:53 Calm 10.00 Fair CLR 64 59 64.9 59 84% 30 1015.3
12 05:53 Calm 10.00 Fair CLR 60.1 55.9 86% 30 1015.3
12 04:53 Calm 10.00 Fair CLR 60.1 55.9 86% 29.99 1014.8
12 03:53 Calm 10.00 Fair CLR 60.1 55.9 86% 29.99 1015.0
12 02:53 Calm 10.00 Fair CLR 61 55.9 84% 29.98 1014.6
12 01:53 Calm 10.00 Fair CLR 60.1 55 84% 29.98 1014.7
12 00:53 Calm 10.00 Fair CLR 64 55.9 78.1 62.1 75% 29.98 1014.5
11 23:53 Calm 10.00 Fair CLR 68 55.9 65% 29.98 1014.7
11 22:53 NE 5 10.00 Fair CLR 70 55 59% 29.98 1014.5
11 21:53 N 5 10.00 Fair CLR 71.1 55 57% 29.97 1014.3
11 20:53 Calm 10.00 Fair CLR 72 54 53% 29.96 1014.1
11 19:53 N 3 10.00 Fair CLR 73.9 54 50% 29.95 1013.7
11 18:53 N 6 10.00 Fair CLR 78.1 52 82 78.1 40% 79 29.93 1012.9
11 17:53 N 7 10.00 Fair CLR 80.1 52 38% 80 29.93 1012.8
11 16:53 Vrbl 7 10.00 Fair CLR 81 48.9 33% 80 29.93 1013.0
11 15:53 NE 12 10.00 Fair CLR 82 51.1 34% 81 29.95 1013.5
11 14:53 N 8 10.00 Fair CLR 82 53.1 37% 81 29.96 1013.9
11 13:53 NE 10 10.00 Fair CLR 80.1 52 38% 80 29.97 1014.1
11 12:53 N 8 10.00 Fair CLR 79 54 79 66 42% 79 29.98 1014.7
11 11:53 Vrbl 5 10.00 Fair CLR 78.1 55.9 47% 79 29.99 1014.9
11 10:53 N 6 10.00 Fair CLR 75.9 54 47% 78 29.99 1015.1
11 09:53 Vrbl 5 10.00 Fair CLR 73 55 53% 30 1015.2
11 08:53 NE 9 10.00 Fair CLR 71.1 55 57% 30 1015.2
11 07:53 NE 6 10.00 Fair CLR 69.1 55.9 63% 30 1015.2
11 06:53 NE 6 10.00 Fair CLR 66 55.9 70 62.1 70% 29.99 1015.0
11 05:53 NE 5 10.00 Fair CLR 63 55.9 78% 29.98 1014.8
11 04:53 NE 6 10.00 Fair CLR 64.9 55 70% 29.96 1014.1
11 03:53 NE 7 10.00 Fair CLR 66 55.9 70% 29.95 1013.7
Date Time (cdt) Wind (mph) Vis. (mi.) Weather Sky Cond. Air Dwpt Max. Min. Relative Humidity Wind Chill (°F) Heat Index (°F) altimeter (in) sea level (mb) 1 hr 3 hr 6 hr
6 hour
Temperature (ºF) Pressure Precipitation (in)